Theta_e
325 322 322 322 323 323 324 328 336 338 342 343 347 348 349 348 350 351 349 351 351 344
322 322 319 319 321 320 323 326 332 334 337 339 341 345 347 346 348 349 350 350 352 348
317 315 317 317 316 319 322 325 326 328 331 335 339 341 344 344 348 348 346 344 349 349
312 312 312 313 315 316 318 320 323 325 327 330 333 338 341 343 344 344 347 349 345 347
309 309 310 312 314 316 316 318 319 321 325 326 330 335 338 338 339 341 342 342 340 334
307 307 307 309 311 313 314 315 317 319 322 325 327 331 337 338 338 341 341 339 332 327
306 308 309 309 308 309 310 312 316 320 322 325 328 331 334 337 338 339 333 330 327 324
307 307 306 307 310 312 313 313 317 321 325 328 331 333 334 325 326 320 315 314 312 312
305 304 306 309 308 312 318 318 320 323 326 327 328 309 311 317 311 310 307 305 305 306
303 303 306 305 305 306 306 307 308 310 311 312 310 305 306 306 307 305 303 303 303 302
301 301 301 301 301 301 301 301 302 303 304 304 305 303 303 303 304 303 302 301 300 299
298 298 299 298 298 299 298 298 299 299 299 299 299 300 300 301 300 299 298 299 300 300
297 297 296 296 296 298 297 296 296 296 297 298 297 297 298 299 298 295 295 296 296 296
297 296 297 296 297 296 295 295 295 295 296 296 297 296 296 296 296 295 294 295 294 295
Wind_Speed
14 10 11 14 12 11 13 15 16 15 14 15 15 14 15 13 13 14 12 15 13 12
15 15 13 14 13 11 13 13 18 17 17 17 18 16 15 12 14 14 13 12 13 12
16 17 17 14 15 15 17 16 17 19 18 19 16 17 15 13 14 14 12 11 11 12
16 17 16 15 16 16 16 16 18 18 20 19 18 17 15 15 16 16 14 13 11 12
16 17 18 17 17 16 16 15 17 18 20 20 19 18 17 17 16 17 16 14 6 8
17 17 18 18 17 17 17 18 17 17 21 19 17 19 17 16 16 16 14 11 8 10
18 17 16 17 18 18 17 18 18 17 19 16 20 18 16 15 13 13 6 9 9 10
17 17 17 17 17 19 18 16 16 17 17 18 16 12 10 10 13 14 14 13 13 12
17 16 16 11 12 13 3 9 15 14 14 14 5 17 18 15 14 15 16 16 15 14
16 15 11 9 9 9 10 9 10 11 13 12 11 24 22 25 14 15 15 15 13 13
13 11 9 8 9 10 9 12 12 14 16 17 12 22 27 28 18 16 16 15 14 13
11 9 9 11 11 10 10 14 15 14 18 18 15 20 24 24 17 18 17 13 12 10
10 9 10 10 10 10 12 15 15 18 18 25 17 20 22 19 13 16 12 13 12 16
9 9 10 10 10 11 13 16 17 20 18 19 19 20 25 23 14 12 11 9 8 5
Wind_Direction
297 293 286 280 286 283 282 286 296 303 287 276 262 246 243 239 236 230 221 225 231 240
301 298 293 288 274 274 271 271 265 267 270 267 277 263 242 239 236 233 221 222 225 233
302 295 292 288 277 273 279 272 270 276 277 281 268 261 257 242 235 230 220 220 219 220
304 297 289 284 277 269 265 262 266 263 261 263 270 263 252 243 235 227 221 220 215 218
302 295 288 281 278 278 274 265 264 261 262 259 257 262 248 239 234 228 218 212 179 158
297 291 285 281 277 275 270 266 257 253 255 251 254 254 250 234 235 226 215 183 142 139
298 299 296 292 280 270 260 255 254 247 248 245 249 245 244 220 230 228 136 119 122 135
313 306 300 292 286 277 249 241 239 245 242 238 240 245 246 112 127 114 98 88 83 85
312 309 303 316 316 330 319 246 239 244 242 242 250 105 113 119 105 101 105 104 101 98
317 319 334 339 346 4 34 43 59 63 68 71 88 106 108 102 100 100 99 101 99 93
334 341 348 5 22 32 42 55 59 65 76 80 69 89 98 98 98 95 91 91 91 92
350 353 10 27 33 42 59 63 64 65 67 77 70 81 94 98 95 90 84 79 75 77
358 14 36 39 43 54 63 74 68 72 66 69 68 66 80 90 92 90 86 77 68 59
15 28 45 55 56 67 75 78 77 76 69 67 67 65 70 76 83 87 89 84 70 56